Time,TemperatureF,DewpointF,PressureIn,WindDirection,WindDirectionDegrees,WindSpeedMPH,WindSpeedGustMPH,Humidity,HourlyPrecipIn,Conditions,Clouds,dailyrainin,SoftwareType,DateUTC
2013-08-23 00:15:00,70.8,69.3,30.02,East,97,0.0,0.0,95,0.00,,,0.00,Wunderground v.1.15,2013-08-23 05:15:00,
2013-08-23 00:16:00,70.8,69.3,30.02,East,97,0.0,0.0,95,0.00,,,0.00,Wunderground v.1.15,2013-08-23 05:16:00,
2013-08-23 00:19:00,70.7,69.2,30.02,East,98,0.0,0.0,95,0.00,,,0.00,Wunderground v.1.15,2013-08-23 05:19:00,
2013-08-23 00:20:00,70.7,69.2,30.02,East,97,0.0,0.0,95,0.00,,,0.00,Wunderground v.1.15,2013-08-23 05:20:00,
2013-08-23 00:22:00,70.7,69.2,30.02,East,97,0.0,0.0,95,0.00,,,0.00,Wunderground v.1.15,2013-08-23 05:22:00,
2013-08-23 00:27:00,70.7,69.5,30.02,East,98,0.0,0.0,96,0.00,,,0.00,Wunderground v.1.15,2013-08-23 05:27:00,
2013-08-23 00:33:00,70.8,69.6,30.02,East,97,0.0,0.0,96,0.00,,,0.00,Wunderground v.1.15,2013-08-23 05:33:00,
2013-08-23 00:38:00,70.7,69.5,30.02,East,97,0.0,0.0,96,0.00,,,0.00,Wunderground v.1.15,2013-08-23 05:38:00,
2013-08-23 00:43:00,70.7,69.5,30.03,East,98,0.0,0.0,96,0.00,,,0.00,Wunderground v.1.15,2013-08-23 05:43:00,
2013-08-23 00:48:00,70.7,69.5,30.03,East,98,0.0,0.0,96,0.00,,,0.00,Wunderground v.1.15,2013-08-23 05:48:00,
2013-08-23 00:53:00,70.7,69.5,30.03,East,97,0.0,0.0,96,0.00,,,0.00,Wunderground v.1.15,2013-08-23 05:53:00,
2013-08-23 00:58:00,70.7,69.5,30.03,East,97,0.0,0.0,96,0.00,,,0.00,Wunderground v.1.15,2013-08-23 05:58:00,
2013-08-23 01:04:00,70.7,69.5,30.03,East,98,0.0,0.0,96,0.00,,,0.00,Wunderground v.1.15,2013-08-23 06:04:00,
2013-08-23 01:10:00,70.8,69.6,30.03,East,97,0.0,0.0,96,0.00,,,0.00,Wunderground v.1.15,2013-08-23 06:10:00,
2013-08-23 01:15:00,70.8,69.6,30.03,East,97,0.0,0.0,96,0.00,,,0.00,Wunderground v.1.15,2013-08-23 06:15:00,
2013-08-23 01:20:00,70.9,69.7,30.02,East,97,0.0,0.0,96,0.00,,,0.00,Wunderground v.1.15,2013-08-23 06:20:00,
2013-08-23 01:26:00,70.8,69.6,30.02,East,97,0.0,0.0,96,0.00,,,0.00,Wunderground v.1.15,2013-08-23 06:26:00,
2013-08-23 01:31:00,70.8,69.6,30.02,East,98,0.0,0.0,96,0.00,,,0.00,Wunderground v.1.15,2013-08-23 06:31:00,
2013-08-23 01:36:00,70.8,69.6,30.02,East,97,0.0,0.0,96,0.00,,,0.00,Wunderground v.1.15,2013-08-23 06:36:00,
2013-08-23 01:41:00,70.8,69.6,30.02,East,97,0.0,0.0,96,0.00,,,0.00,Wunderground v.1.15,2013-08-23 06:41:00,
2013-08-23 01:46:00,70.8,69.6,30.02,East,97,0.0,0.0,96,0.00,,,0.00,Wunderground v.1.15,2013-08-23 06:46:00,
2013-08-23 01:51:00,71.0,69.8,30.02,NE,47,0.0,1.0,96,0.00,,,0.00,Wunderground v.1.15,2013-08-23 06:51:00,
2013-08-23 01:56:00,71.2,70.3,30.02,NNE,25,1.0,2.0,97,0.00,,,0.00,Wunderground v.1.15,2013-08-23 06:56:00,
2013-08-23 02:02:00,71.5,70.6,30.02,NNE,23,1.0,2.0,97,0.00,,,0.00,Wunderground v.1.15,2013-08-23 07:02:00,
2013-08-23 02:07:00,71.5,70.3,30.02,NE,49,1.0,2.0,96,0.00,,,0.00,Wunderground v.1.15,2013-08-23 07:07:00,
2013-08-23 02:12:00,71.5,70.3,30.02,NNE,12,1.0,4.0,96,0.00,,,0.00,Wunderground v.1.15,2013-08-23 07:12:00,
2013-08-23 02:17:00,71.5,70.3,30.02,NE,40,2.0,4.0,96,0.00,,,0.00,Wunderground v.1.15,2013-08-23 07:17:00,
2013-08-23 02:22:00,71.4,70.2,30.02,ENE,61,1.0,2.0,96,0.00,,,0.00,Wunderground v.1.15,2013-08-23 07:22:00,
2013-08-23 02:27:00,71.3,70.1,30.02,ENE,60,1.0,2.0,96,0.00,,,0.00,Wunderground v.1.15,2013-08-23 07:27:00,
2013-08-23 02:32:00,71.2,70.0,30.02,NE,46,1.0,2.0,96,0.00,,,0.00,Wunderground v.1.15,2013-08-23 07:32:00,
2013-08-23 02:37:00,71.2,70.0,30.02,NE,41,1.0,2.0,96,0.00,,,0.00,Wunderground v.1.15,2013-08-23 07:37:00,
2013-08-23 02:43:00,71.1,69.9,30.02,NE,44,1.0,2.0,96,0.00,,,0.00,Wunderground v.1.15,2013-08-23 07:43:00,
2013-08-23 02:48:00,71.0,69.8,30.02,NE,44,1.0,3.0,96,0.00,,,0.00,Wunderground v.1.15,2013-08-23 07:48:00,
2013-08-23 02:53:00,70.9,69.7,30.03,ENE,76,1.0,5.0,96,0.00,,,0.00,Wunderground v.1.15,2013-08-23 07:53:00,
2013-08-23 02:58:00,70.9,69.7,30.02,ENE,69,2.0,5.0,96,0.00,,,0.00,Wunderground v.1.15,2013-08-23 07:58:00,
2013-08-23 03:03:00,70.9,69.7,30.02,East,84,2.0,4.0,96,0.00,,,0.00,Wunderground v.1.15,2013-08-23 08:03:00,
2013-08-23 03:08:00,70.8,69.3,30.02,NNE,30,2.0,4.0,95,0.00,,,0.00,Wunderground v.1.15,2013-08-23 08:08:00,
2013-08-23 03:14:00,70.7,69.2,30.02,NE,41,1.0,2.0,95,0.00,,,0.00,Wunderground v.1.15,2013-08-23 08:14:00,
2013-08-23 03:19:00,70.7,69.2,30.02,NNE,30,1.0,2.0,95,0.00,,,0.00,Wunderground v.1.15,2013-08-23 08:19:00,
2013-08-23 03:24:00,70.7,69.2,30.02,ENE,61,1.0,1.0,95,0.00,,,0.00,Wunderground v.1.15,2013-08-23 08:24:00,
2013-08-23 03:29:00,70.6,69.1,30.02,ENE,77,1.0,2.0,95,0.00,,,0.00,Wunderground v.1.15,2013-08-23 08:29:00,
2013-08-23 03:34:00,70.6,69.1,30.02,ENE,70,1.0,1.0,95,0.00,,,0.00,Wunderground v.1.15,2013-08-23 08:34:00,
2013-08-23 03:39:00,70.5,69.0,30.02,East,93,1.0,2.0,95,0.00,,,0.00,Wunderground v.1.15,2013-08-23 08:39:00,
2013-08-23 03:44:00,70.5,69.0,30.02,ENE,60,1.0,2.0,95,0.00,,,0.00,Wunderground v.1.15,2013-08-23 08:44:00,
2013-08-23 03:49:00,70.5,69.0,30.02,NE,49,1.0,2.0,95,0.00,,,0.00,Wunderground v.1.15,2013-08-23 08:49:00,
2013-08-23 03:54:00,70.5,69.0,30.02,NE,46,0.0,1.0,95,0.00,,,0.00,Wunderground v.1.15,2013-08-23 08:54:00,
2013-08-23 03:59:00,70.5,69.0,30.02,NE,49,0.0,2.0,95,0.00,,,0.00,Wunderground v.1.15,2013-08-23 08:59:00,
2013-08-23 04:05:00,70.4,68.9,30.02,ENE,58,0.0,1.0,95,0.00,,,0.00,Wunderground v.1.15,2013-08-23 09:05:00,
2013-08-23 04:10:00,70.4,68.9,30.03,North,353,0.0,0.0,95,0.00,,,0.00,Wunderground v.1.15,2013-08-23 09:10:00,
2013-08-23 04:15:00,70.4,68.9,30.03,NNW,340,0.0,0.0,95,0.00,,,0.00,Wunderground v.1.15,2013-08-23 09:15:00,
2013-08-23 04:20:00,70.4,68.9,30.03,North,350,0.0,0.0,95,0.00,,,0.00,Wunderground v.1.15,2013-08-23 09:20:00,
2013-08-23 04:25:00,70.4,68.9,30.03,NE,34,0.0,1.0,95,0.00,,,0.00,Wunderground v.1.15,2013-08-23 09:25:00,
2013-08-23 04:31:00,70.5,69.0,30.03,NNE,27,0.0,0.0,95,0.00,,,0.00,Wunderground v.1.15,2013-08-23 09:31:00,
2013-08-23 04:36:00,70.5,69.0,30.03,NE,43,0.0,0.0,95,0.00,,,0.00,Wunderground v.1.15,2013-08-23 09:36:00,
2013-08-23 04:41:00,70.5,69.0,30.03,NE,43,0.0,0.0,95,0.00,,,0.00,Wunderground v.1.15,2013-08-23 09:41:00,
2013-08-23 04:46:00,70.5,69.0,30.04,NNE,23,0.0,1.0,95,0.00,,,0.00,Wunderground v.1.15,2013-08-23 09:46:00,
2013-08-23 04:52:00,70.6,69.1,30.04,NW,322,1.0,2.0,95,0.00,,,0.00,Wunderground v.1.15,2013-08-23 09:52:00,
2013-08-23 04:57:00,70.6,69.1,30.03,North,11,1.0,2.0,95,0.00,,,0.00,Wunderground v.1.15,2013-08-23 09:57:00,
2013-08-23 05:02:00,70.6,69.1,30.04,North,356,1.0,1.0,95,0.00,,,0.00,Wunderground v.1.15,2013-08-23 10:02:00,
2013-08-23 05:07:00,70.7,69.2,30.04,WNW,297,1.0,4.0,95,0.00,,,0.00,Wunderground v.1.15,2013-08-23 10:07:00,
2013-08-23 05:13:00,70.8,69.3,30.04,WNW,291,2.0,3.0,95,0.00,,,0.01,Wunderground v.1.15,2013-08-23 10:13:00,
2013-08-23 05:18:00,70.8,69.3,30.04,WNW,295,2.0,3.0,95,0.00,,,0.01,Wunderground v.1.15,2013-08-23 10:18:00,
2013-08-23 05:23:00,70.7,69.2,30.05,NW,309,1.0,2.0,95,0.00,,,0.01,Wunderground v.1.15,2013-08-23 10:23:00,
2013-08-23 05:28:00,70.6,69.1,30.05,NNE,22,0.0,2.0,95,0.00,,,0.01,Wunderground v.1.15,2013-08-23 10:28:00,
2013-08-23 05:33:00,70.4,68.9,30.04,NNE,23,0.0,0.0,95,0.00,,,0.01,Wunderground v.1.15,2013-08-23 10:33:00,
2013-08-23 05:38:00,70.4,68.9,30.04,NE,36,0.0,0.0,95,0.00,,,0.01,Wunderground v.1.15,2013-08-23 10:38:00,
2013-08-23 05:43:00,70.3,68.8,30.04,NNE,32,0.0,0.0,95,0.00,,,0.01,Wunderground v.1.15,2013-08-23 10:43:00,
2013-08-23 05:49:00,70.2,69.0,30.05,WNW,301,0.0,1.0,96,0.00,,,0.01,Wunderground v.1.15,2013-08-23 10:49:00,
2013-08-23 05:55:00,70.1,68.6,30.05,WNW,300,0.0,0.0,95,0.00,,,0.01,Wunderground v.1.15,2013-08-23 10:55:00,
2013-08-23 06:00:00,70.1,68.9,30.05,WNW,301,0.0,0.0,96,0.00,,,0.01,Wunderground v.1.15,2013-08-23 11:00:00,
2013-08-23 06:06:00,70.0,68.8,30.05,WNW,300,0.0,0.0,96,0.00,,,0.01,Wunderground v.1.15,2013-08-23 11:06:00,
2013-08-23 06:11:00,69.9,68.7,30.05,WNW,302,0.0,0.0,96,0.00,,,0.01,Wunderground v.1.15,2013-08-23 11:11:00,
2013-08-23 06:16:00,69.9,68.7,30.05,WNW,302,0.0,0.0,96,0.00,,,0.01,Wunderground v.1.15,2013-08-23 11:16:00,
2013-08-23 06:21:00,69.9,68.7,30.06,WNW,302,0.0,0.0,96,0.00,,,0.01,Wunderground v.1.15,2013-08-23 11:21:00,
2013-08-23 06:26:00,69.9,68.7,30.06,NW,320,0.0,0.0,96,0.00,,,0.01,Wunderground v.1.15,2013-08-23 11:26:00,
2013-08-23 06:31:00,69.9,68.7,30.06,NW,319,0.0,0.0,96,0.00,,,0.01,Wunderground v.1.15,2013-08-23 11:31:00,
2013-08-23 06:37:00,69.9,68.7,30.06,NW,319,0.0,0.0,96,0.00,,,0.01,Wunderground v.1.15,2013-08-23 11:37:00,
2013-08-23 06:42:00,69.9,68.7,30.05,NW,319,0.0,0.0,96,0.00,,,0.01,Wunderground v.1.15,2013-08-23 11:42:00,
2013-08-23 06:47:00,70.0,68.8,30.05,North,7,0.0,0.0,96,0.00,,,0.01,Wunderground v.1.15,2013-08-23 11:47:00,
2013-08-23 06:52:00,70.1,68.9,30.06,North,8,0.0,0.0,96,0.00,,,0.01,Wunderground v.1.15,2013-08-23 11:52:00,
2013-08-23 06:57:00,70.1,68.9,30.06,North,7,0.0,0.0,96,0.00,,,0.01,Wunderground v.1.15,2013-08-23 11:57:00,
2013-08-23 07:03:00,70.2,69.0,30.06,North,5,0.0,0.0,96,0.00,,,0.01,Wunderground v.1.15,2013-08-23 12:03:00,
2013-08-23 07:08:00,70.3,69.1,30.06,North,5,0.0,0.0,96,0.00,,,0.01,Wunderground v.1.15,2013-08-23 12:08:00,
2013-08-23 07:13:00,70.4,69.2,30.06,North,5,0.0,0.0,96,0.00,,,0.01,Wunderground v.1.15,2013-08-23 12:13:00,
2013-08-23 07:19:00,70.6,69.4,30.06,North,6,0.0,0.0,96,0.00,,,0.01,Wunderground v.1.15,2013-08-23 12:19:00,
2013-08-23 07:24:00,70.7,69.5,30.06,ENE,57,0.0,2.0,96,0.00,,,0.01,Wunderground v.1.15,2013-08-23 12:24:00,
2013-08-23 07:30:00,70.6,69.4,30.06,ENE,59,1.0,2.0,96,0.00,,,0.01,Wunderground v.1.15,2013-08-23 12:30:00,
2013-08-23 07:35:00,70.6,69.4,30.06,NE,41,1.0,2.0,96,0.00,,,0.01,Wunderground v.1.15,2013-08-23 12:35:00,
2013-08-23 07:40:00,70.9,69.7,30.06,NE,44,1.0,3.0,96,0.00,,,0.01,Wunderground v.1.15,2013-08-23 12:40:00,
2013-08-23 07:45:00,71.3,70.1,30.06,ENE,72,1.0,3.0,96,0.00,,,0.01,Wunderground v.1.15,2013-08-23 12:45:00,
2013-08-23 07:50:00,71.8,70.6,30.07,ENE,59,2.0,2.0,96,0.00,,,0.01,Wunderground v.1.15,2013-08-23 12:50:00,
2013-08-23 07:55:00,72.2,70.7,30.07,NNE,27,2.0,4.0,95,0.00,,,0.01,Wunderground v.1.15,2013-08-23 12:55:00,
2013-08-23 08:00:00,72.7,70.9,30.07,NE,37,1.0,3.0,94,0.00,,,0.01,Wunderground v.1.15,2013-08-23 13:00:00,
2013-08-23 08:06:00,73.1,71.0,30.07,NNE,33,1.0,4.0,93,0.00,,,0.01,Wunderground v.1.15,2013-08-23 13:06:00,
2013-08-23 08:11:00,73.4,70.9,30.08,NE,41,2.0,2.0,92,0.00,,,0.01,Wunderground v.1.15,2013-08-23 13:11:00,
2013-08-23 08:16:00,73.7,70.9,30.08,NNW,330,2.0,7.0,91,0.00,,,0.01,Wunderground v.1.15,2013-08-23 13:16:00,
2013-08-23 08:21:00,74.2,71.1,30.07,ENE,57,2.0,2.0,90,0.00,,,0.01,Wunderground v.1.15,2013-08-23 13:21:00,
2013-08-23 08:26:00,74.7,71.6,30.07,ENE,67,1.0,2.0,90,0.00,,,0.01,Wunderground v.1.15,2013-08-23 13:26:00,
2013-08-23 08:31:00,75.1,71.6,30.07,ENE,65,1.0,2.0,89,0.00,,,0.01,Wunderground v.1.15,2013-08-23 13:31:00,
2013-08-23 08:36:00,75.7,71.9,30.07,NE,48,1.0,2.0,88,0.00,,,0.01,Wunderground v.1.15,2013-08-23 13:36:00,
2013-08-23 08:41:00,75.8,71.0,30.07,ENE,72,1.0,3.0,85,0.00,,,0.01,Wunderground v.1.15,2013-08-23 13:41:00,
2013-08-23 08:46:00,76.0,71.5,30.07,East,90,2.0,4.0,86,0.00,,,0.01,Wunderground v.1.15,2013-08-23 13:46:00,
2013-08-23 08:51:00,76.3,71.8,30.07,ENE,76,2.0,2.0,86,0.00,,,0.01,Wunderground v.1.15,2013-08-23 13:51:00,
2013-08-23 08:57:00,76.2,71.4,30.07,ESE,105,3.0,5.0,85,0.00,,,0.01,Wunderground v.1.15,2013-08-23 13:57:00,
2013-08-23 09:03:00,76.4,71.6,30.07,ENE,68,3.0,4.0,85,0.00,,,0.01,Wunderground v.1.15,2013-08-23 14:03:00,
2013-08-23 09:08:00,76.7,71.5,30.07,NE,56,3.0,4.0,84,0.00,,,0.01,Wunderground v.1.15,2013-08-23 14:08:00,
2013-08-23 09:13:00,76.9,71.7,30.07,ENE,65,3.0,4.0,84,0.00,,,0.01,Wunderground v.1.15,2013-08-23 14:13:00,
2013-08-23 09:18:00,77.2,71.6,30.07,East,86,3.0,4.0,83,0.00,,,0.01,Wunderground v.1.15,2013-08-23 14:18:00,
2013-08-23 09:23:00,77.4,71.8,30.07,NNE,32,3.0,4.0,83,0.00,,,0.01,Wunderground v.1.15,2013-08-23 14:23:00,
2013-08-23 09:28:00,77.4,71.8,30.07,ENE,74,3.0,4.0,83,0.00,,,0.01,Wunderground v.1.15,2013-08-23 14:28:00,
2013-08-23 09:33:00,77.7,72.1,30.07,ENE,65,3.0,3.0,83,0.00,,,0.01,Wunderground v.1.15,2013-08-23 14:33:00,
2013-08-23 09:39:00,77.8,72.2,30.07,ENE,70,3.0,4.0,83,0.00,,,0.01,Wunderground v.1.15,2013-08-23 14:39:00,
2013-08-23 09:45:00,78.3,72.0,30.07,NE,51,3.0,7.0,81,0.00,,,0.01,Wunderground v.1.15,2013-08-23 14:45:00,
2013-08-23 09:50:00,78.7,72.7,30.07,ENE,64,2.0,2.0,82,0.00,,,0.01,Wunderground v.1.15,2013-08-23 14:50:00,
2013-08-23 09:55:00,79.0,72.7,30.07,NNE,32,2.0,4.0,81,0.00,,,0.01,Wunderground v.1.15,2013-08-23 14:55:00,
2013-08-23 10:00:00,79.4,73.1,30.08,East,82,2.0,2.0,81,0.00,,,0.01,Wunderground v.1.15,2013-08-23 15:00:00,
2013-08-23 10:06:00,79.6,72.5,30.07,NE,39,2.0,5.0,79,0.00,,,0.01,Wunderground v.1.15,2013-08-23 15:06:00,
2013-08-23 10:11:00,79.6,72.9,30.07,East,81,2.0,2.0,80,0.00,,,0.01,Wunderground v.1.15,2013-08-23 15:11:00,
2013-08-23 10:17:00,80.2,73.5,30.08,ENE,72,1.0,4.0,80,0.00,,,0.01,Wunderground v.1.15,2013-08-23 15:17:00,
2013-08-23 10:22:00,80.5,73.4,30.08,NE,38,2.0,4.0,79,0.00,,,0.01,Wunderground v.1.15,2013-08-23 15:22:00,
2013-08-23 10:27:00,80.8,73.3,30.08,East,80,2.0,4.0,78,0.00,,,0.01,Wunderground v.1.15,2013-08-23 15:27:00,
2013-08-23 10:32:00,80.9,73.0,30.08,NNE,28,2.0,2.0,77,0.00,,,0.01,Wunderground v.1.15,2013-08-23 15:32:00,
2013-08-23 10:37:00,80.6,72.7,30.08,ENE,61,2.0,5.0,77,0.00,,,0.01,Wunderground v.1.15,2013-08-23 15:37:00,
2013-08-23 10:42:00,80.6,73.1,30.08,East,100,2.0,3.0,78,0.00,,,0.01,Wunderground v.1.15,2013-08-23 15:42:00,
2013-08-23 10:47:00,81.1,73.6,30.08,NNE,23,2.0,4.0,78,0.00,,,0.01,Wunderground v.1.15,2013-08-23 15:47:00,
2013-08-23 10:52:00,81.5,74.0,30.08,ENE,68,2.0,5.0,78,0.00,,,0.01,Wunderground v.1.15,2013-08-23 15:52:00,
2013-08-23 10:57:00,81.6,73.3,30.08,NE,34,2.0,5.0,76,0.00,,,0.01,Wunderground v.1.15,2013-08-23 15:57:00,
2013-08-23 11:03:00,81.9,74.0,30.08,East,101,2.0,5.0,77,0.00,,,0.01,Wunderground v.1.15,2013-08-23 16:03:00,
2013-08-23 11:08:00,81.6,72.9,30.08,NNE,27,3.0,5.0,75,0.00,,,0.01,Wunderground v.1.15,2013-08-23 16:08:00,
2013-08-23 11:13:00,81.7,73.4,30.08,East,82,3.0,5.0,76,0.00,,,0.01,Wunderground v.1.15,2013-08-23 16:13:00,
2013-08-23 11:18:00,81.7,73.0,30.08,NE,47,3.0,6.0,75,0.00,,,0.01,Wunderground v.1.15,2013-08-23 16:18:00,
2013-08-23 11:23:00,82.0,72.9,30.07,ENE,75,3.0,4.0,74,0.00,,,0.01,Wunderground v.1.15,2013-08-23 16:23:00,
2013-08-23 11:28:00,82.6,73.9,30.08,NE,44,1.0,4.0,75,0.00,,,0.01,Wunderground v.1.15,2013-08-23 16:28:00,
2013-08-23 11:33:00,82.9,73.4,30.07,ENE,65,1.0,4.0,73,0.00,,,0.01,Wunderground v.1.15,2013-08-23 16:33:00,
2013-08-23 11:39:00,82.9,73.4,30.07,ENE,67,3.0,5.0,73,0.00,,,0.01,Wunderground v.1.15,2013-08-23 16:39:00,
2013-08-23 11:44:00,83.2,73.6,30.07,North,355,2.0,4.0,73,0.00,,,0.01,Wunderground v.1.15,2013-08-23 16:44:00,
2013-08-23 11:49:00,83.4,73.4,30.07,ENE,75,2.0,4.0,72,0.00,,,0.01,Wunderground v.1.15,2013-08-23 16:49:00,
2013-08-23 11:54:00,83.6,72.8,30.07,ENE,72,2.0,4.0,70,0.00,,,0.01,Wunderground v.1.15,2013-08-23 16:54:00,
2013-08-23 11:59:00,83.5,72.7,30.07,NNE,32,2.0,4.0,70,0.00,,,0.01,Wunderground v.1.15,2013-08-23 16:59:00,
2013-08-23 12:05:00,83.9,73.9,30.07,ENE,64,1.0,2.0,72,0.00,,,0.01,Wunderground v.1.15,2013-08-23 17:05:00,
2013-08-23 12:10:00,83.8,73.0,30.07,NE,40,2.0,3.0,70,0.00,,,0.01,Wunderground v.1.15,2013-08-23 17:10:00,
2013-08-23 12:15:00,83.7,73.3,30.07,NE,47,3.0,4.0,71,0.00,,,0.01,Wunderground v.1.15,2013-08-23 17:15:00,
2013-08-23 12:20:00,83.9,73.1,30.07,NE,53,2.0,3.0,70,0.00,,,0.01,Wunderground v.1.15,2013-08-23 17:20:00,
2013-08-23 12:25:00,83.8,73.4,30.07,ENE,57,3.0,6.0,71,0.00,,,0.01,Wunderground v.1.15,2013-08-23 17:25:00,
2013-08-23 12:30:00,83.9,73.5,30.07,East,83,3.0,3.0,71,0.00,,,0.01,Wunderground v.1.15,2013-08-23 17:30:00,
2013-08-23 12:35:00,84.2,73.8,30.07,NE,53,3.0,8.0,71,0.00,,,0.01,Wunderground v.1.15,2013-08-23 17:35:00,
2013-08-23 12:40:00,84.3,74.3,30.07,North,350,3.0,3.0,72,0.00,,,0.01,Wunderground v.1.15,2013-08-23 17:40:00,
2013-08-23 12:46:00,84.4,73.5,30.07,NE,41,2.0,3.0,70,0.00,,,0.01,Wunderground v.1.15,2013-08-23 17:46:00,
2013-08-23 12:51:00,84.6,72.4,30.06,NE,50,3.0,5.0,67,0.00,,,0.01,Wunderground v.1.15,2013-08-23 17:51:00,
2013-08-23 12:56:00,84.5,72.3,30.06,NNE,32,3.0,5.0,67,0.00,,,0.01,Wunderground v.1.15,2013-08-23 17:56:00,
2013-08-23 13:01:00,84.5,73.2,30.06,ENE,73,2.0,4.0,69,0.00,,,0.01,Wunderground v.1.15,2013-08-23 18:01:00,
2013-08-23 13:06:00,84.9,73.6,30.06,North,360,2.0,4.0,69,0.00,,,0.01,Wunderground v.1.15,2013-08-23 18:06:00,
2013-08-23 13:11:00,85.1,72.9,30.06,North,7,2.0,2.0,67,0.00,,,0.01,Wunderground v.1.15,2013-08-23 18:11:00,
2013-08-23 13:16:00,85.1,72.9,30.06,East,84,3.0,5.0,67,0.00,,,0.01,Wunderground v.1.15,2013-08-23 18:16:00,
2013-08-23 13:22:00,85.2,73.4,30.06,NNE,27,3.0,4.0,68,0.00,,,0.01,Wunderground v.1.15,2013-08-23 18:22:00,
2013-08-23 13:27:00,85.1,73.3,30.06,NNE,33,2.0,4.0,68,0.00,,,0.01,Wunderground v.1.15,2013-08-23 18:27:00,
2013-08-23 13:32:00,85.3,73.5,30.06,NE,41,2.0,5.0,68,0.00,,,0.01,Wunderground v.1.15,2013-08-23 18:32:00,
2013-08-23 13:37:00,85.4,73.6,30.06,East,79,3.0,5.0,68,0.00,,,0.01,Wunderground v.1.15,2013-08-23 18:37:00,
2013-08-23 13:42:00,85.4,74.5,30.06,NNE,32,3.0,4.0,70,0.00,,,0.01,Wunderground v.1.15,2013-08-23 18:42:00,
2013-08-23 13:47:00,85.6,73.4,30.05,NNE,29,3.0,4.0,67,0.00,,,0.01,Wunderground v.1.15,2013-08-23 18:47:00,
2013-08-23 13:52:00,85.6,73.4,30.05,ENE,57,3.0,4.0,67,0.00,,,0.01,Wunderground v.1.15,2013-08-23 18:52:00,
2013-08-23 13:57:00,85.6,73.4,30.05,ENE,63,3.0,5.0,67,0.00,,,0.01,Wunderground v.1.15,2013-08-23 18:57:00,
2013-08-23 14:03:00,86.0,73.8,30.05,NE,34,3.0,5.0,67,0.00,,,0.01,Wunderground v.1.15,2013-08-23 19:03:00,
2013-08-23 14:08:00,86.1,72.5,30.05,North,9,3.0,5.0,64,0.00,,,0.01,Wunderground v.1.15,2013-08-23 19:08:00,
2013-08-23 14:14:00,86.2,72.1,30.05,East,89,1.0,2.0,63,0.00,,,0.01,Wunderground v.1.15,2013-08-23 19:14:00,
2013-08-23 14:19:00,86.3,72.7,30.04,NW,323,1.0,4.0,64,0.00,,,0.01,Wunderground v.1.15,2013-08-23 19:19:00,
2013-08-23 14:24:00,86.3,72.2,30.04,ENE,65,2.0,3.0,63,0.00,,,0.01,Wunderground v.1.15,2013-08-23 19:24:00,
2013-08-23 14:29:00,86.4,73.2,30.04,North,3,2.0,3.0,65,0.00,,,0.01,Wunderground v.1.15,2013-08-23 19:29:00,
2013-08-23 14:34:00,86.5,71.9,30.04,WNW,296,2.0,3.0,62,0.00,,,0.01,Wunderground v.1.15,2013-08-23 19:34:00,
2013-08-23 14:39:00,86.6,72.5,30.04,North,9,2.0,5.0,63,0.00,,,0.01,Wunderground v.1.15,2013-08-23 19:39:00,
2013-08-23 14:44:00,86.6,73.0,30.04,ENE,78,3.0,6.0,64,0.00,,,0.01,Wunderground v.1.15,2013-08-23 19:44:00,
2013-08-23 14:49:00,87.0,73.8,30.03,East,101,3.0,6.0,65,0.00,,,0.01,Wunderground v.1.15,2013-08-23 19:49:00,
2013-08-23 14:54:00,87.2,72.1,30.03,ENE,74,2.0,4.0,61,0.00,,,0.01,Wunderground v.1.15,2013-08-23 19:54:00,
2013-08-23 14:59:00,87.1,72.0,30.03,ENE,65,3.0,4.0,61,0.00,,,0.01,Wunderground v.1.15,2013-08-23 19:59:00,
2013-08-23 15:05:00,86.8,71.7,30.03,ENE,68,3.0,5.0,61,0.00,,,0.01,Wunderground v.1.15,2013-08-23 20:05:00,
2013-08-23 15:10:00,86.6,72.0,30.03,NE,47,3.0,3.0,62,0.00,,,0.01,Wunderground v.1.15,2013-08-23 20:10:00,
2013-08-23 15:16:00,86.7,72.1,30.03,NE,45,3.0,5.0,62,0.00,,,0.01,Wunderground v.1.15,2013-08-23 20:16:00,
2013-08-23 15:21:00,86.6,72.0,30.03,East,84,3.0,4.0,62,0.00,,,0.01,Wunderground v.1.15,2013-08-23 20:21:00,
2013-08-23 15:26:00,86.9,73.3,30.03,NE,46,3.0,4.0,64,0.00,,,0.01,Wunderground v.1.15,2013-08-23 20:26:00,
2013-08-23 15:31:00,87.0,72.9,30.02,NE,50,2.0,2.0,63,0.00,,,0.01,Wunderground v.1.15,2013-08-23 20:31:00,
2013-08-23 15:36:00,86.9,71.8,30.02,ENE,67,2.0,6.0,61,0.00,,,0.01,Wunderground v.1.15,2013-08-23 20:36:00,
2013-08-23 15:41:00,86.6,71.5,30.02,NNE,27,4.0,4.0,61,0.00,,,0.01,Wunderground v.1.15,2013-08-23 20:41:00,
2013-08-23 15:46:00,86.5,71.5,30.02,ESE,105,3.0,4.0,61,0.00,,,0.01,Wunderground v.1.15,2013-08-23 20:46:00,
2013-08-23 15:51:00,86.5,71.0,30.02,ENE,58,3.0,3.0,60,0.00,,,0.01,Wunderground v.1.15,2013-08-23 20:51:00,
2013-08-23 15:56:00,86.3,71.3,30.02,ENE,67,5.0,7.0,61,0.00,,,0.01,Wunderground v.1.15,2013-08-23 20:56:00,
2013-08-23 16:01:00,86.3,71.7,30.02,ENE,64,5.0,8.0,62,0.00,,,0.01,Wunderground v.1.15,2013-08-23 21:01:00,
2013-08-23 16:06:00,86.4,72.3,30.02,ENE,64,4.0,8.0,63,0.00,,,0.01,Wunderground v.1.15,2013-08-23 21:06:00,
2013-08-23 16:12:00,86.4,71.8,30.02,NNE,32,3.0,7.0,62,0.00,,,0.01,Wunderground v.1.15,2013-08-23 21:12:00,
2013-08-23 16:17:00,86.1,72.5,30.02,NNE,32,3.0,7.0,64,0.00,,,0.01,Wunderground v.1.15,2013-08-23 21:17:00,
2013-08-23 16:23:00,85.9,73.2,30.02,NNE,26,3.0,3.0,66,0.00,,,0.01,Wunderground v.1.15,2013-08-23 21:23:00,
2013-08-23 16:28:00,85.2,71.6,30.02,East,97,4.0,8.0,64,0.00,,,0.01,Wunderground v.1.15,2013-08-23 21:28:00,
2013-08-23 16:33:00,85.4,72.7,30.02,NNW,330,3.0,4.0,66,0.00,,,0.01,Wunderground v.1.15,2013-08-23 21:33:00,
2013-08-23 16:38:00,85.9,72.8,30.02,ENE,57,2.0,5.0,65,0.00,,,0.01,Wunderground v.1.15,2013-08-23 21:38:00,
2013-08-23 16:43:00,85.9,71.4,30.02,ENE,59,3.0,8.0,62,0.00,,,0.01,Wunderground v.1.15,2013-08-23 21:43:00,
2013-08-23 16:49:00,86.0,71.9,30.02,NW,317,3.0,8.0,63,0.00,,,0.01,Wunderground v.1.15,2013-08-23 21:49:00,
2013-08-23 16:54:00,86.3,73.1,30.02,NE,51,3.0,4.0,65,0.00,,,0.01,Wunderground v.1.15,2013-08-23 21:54:00,
2013-08-23 16:59:00,86.2,71.2,30.02,ENE,67,3.0,5.0,61,0.00,,,0.01,Wunderground v.1.15,2013-08-23 21:59:00,
2013-08-23 17:05:00,86.3,72.7,30.03,ENE,58,2.0,5.0,64,0.00,,,0.01,Wunderground v.1.15,2013-08-23 22:05:00,
2013-08-23 17:10:00,86.6,73.4,30.03,NW,315,1.0,1.0,65,0.00,,,0.01,Wunderground v.1.15,2013-08-23 22:10:00,
2013-08-23 17:15:00,86.9,72.8,30.03,NNE,20,1.0,3.0,63,0.00,,,0.01,Wunderground v.1.15,2013-08-23 22:15:00,
2013-08-23 17:20:00,86.8,72.7,30.03,NNE,12,1.0,1.0,63,0.00,,,0.01,Wunderground v.1.15,2013-08-23 22:20:00,
2013-08-23 17:25:00,86.3,72.2,30.03,East,100,2.0,3.0,63,0.00,,,0.01,Wunderground v.1.15,2013-08-23 22:25:00,
2013-08-23 17:30:00,86.0,71.9,30.03,NE,46,3.0,5.0,63,0.00,,,0.01,Wunderground v.1.15,2013-08-23 22:30:00,
2013-08-23 17:35:00,85.7,72.1,30.03,NE,42,3.0,5.0,64,0.00,,,0.01,Wunderground v.1.15,2013-08-23 22:35:00,
2013-08-23 17:40:00,85.3,71.7,30.03,NE,42,2.0,2.0,64,0.00,,,0.01,Wunderground v.1.15,2013-08-23 22:40:00,
2013-08-23 17:46:00,85.4,72.7,30.03,NE,37,2.0,3.0,66,0.00,,,0.01,Wunderground v.1.15,2013-08-23 22:46:00,
2013-08-23 17:51:00,85.4,72.3,30.03,ENE,61,2.0,3.0,65,0.00,,,0.01,Wunderground v.1.15,2013-08-23 22:51:00,
2013-08-23 17:56:00,85.3,72.2,30.03,ENE,71,2.0,3.0,65,0.00,,,0.01,Wunderground v.1.15,2013-08-23 22:56:00,
2013-08-23 18:02:00,85.1,72.0,30.03,ENE,67,2.0,4.0,65,0.00,,,0.01,Wunderground v.1.15,2013-08-23 23:02:00,
2013-08-23 18:07:00,84.8,71.7,30.03,NE,49,3.0,5.0,65,0.00,,,0.01,Wunderground v.1.15,2013-08-23 23:07:00,
2013-08-23 18:12:00,84.6,72.0,30.03,ENE,73,3.0,3.0,66,0.00,,,0.01,Wunderground v.1.15,2013-08-23 23:12:00,
2013-08-23 18:17:00,84.3,71.2,30.03,NE,44,3.0,5.0,65,0.00,,,0.01,Wunderground v.1.15,2013-08-23 23:17:00,
2013-08-23 18:22:00,84.1,71.5,30.03,ENE,71,3.0,4.0,66,0.00,,,0.01,Wunderground v.1.15,2013-08-23 23:22:00,
2013-08-23 18:28:00,83.9,71.8,30.03,ENE,65,2.0,4.0,67,0.00,,,0.01,Wunderground v.1.15,2013-08-23 23:28:00,
2013-08-23 18:33:00,83.8,72.1,30.03,ENE,68,1.0,3.0,68,0.00,,,0.01,Wunderground v.1.15,2013-08-23 23:33:00,
2013-08-23 18:38:00,83.6,72.3,30.04,East,97,1.0,3.0,69,0.00,,,0.01,Wunderground v.1.15,2013-08-23 23:38:00,
2013-08-23 18:43:00,83.4,73.0,30.04,ESE,115,0.0,1.0,71,0.00,,,0.01,Wunderground v.1.15,2013-08-23 23:43:00,
2013-08-23 18:48:00,83.4,73.4,30.04,ESE,114,0.0,1.0,72,0.00,,,0.01,Wunderground v.1.15,2013-08-23 23:48:00,
2013-08-23 18:53:00,83.4,73.0,30.04,ESE,114,0.0,0.0,71,0.00,,,0.01,Wunderground v.1.15,2013-08-23 23:53:00,
2013-08-23 18:58:00,83.4,73.4,30.04,ESE,114,0.0,0.0,72,0.00,,,0.01,Wunderground v.1.15,2013-08-23 23:58:00,
2013-08-23 19:04:00,83.6,73.6,30.04,ESE,114,0.0,0.0,72,0.00,,,0.01,Wunderground v.1.15,2013-08-24 00:04:00,
2013-08-23 19:09:00,83.2,72.8,30.04,ESE,115,0.0,0.0,71,0.00,,,0.01,Wunderground v.1.15,2013-08-24 00:09:00,
2013-08-23 19:15:00,82.2,72.7,30.04,ESE,114,0.0,0.0,73,0.00,,,0.01,Wunderground v.1.15,2013-08-24 00:15:00,
2013-08-23 19:20:00,81.4,73.5,30.04,ESE,115,0.0,0.0,77,0.00,,,0.01,Wunderground v.1.15,2013-08-24 00:20:00,
2013-08-23 19:25:00,80.6,72.7,30.04,ESE,115,0.0,0.0,77,0.00,,,0.01,Wunderground v.1.15,2013-08-24 00:25:00,
2013-08-23 19:30:00,79.6,72.5,30.04,ESE,115,0.0,0.0,79,0.00,,,0.01,Wunderground v.1.15,2013-08-24 00:30:00,
2013-08-23 19:35:00,78.7,72.4,30.04,ESE,115,0.0,0.0,81,0.00,,,0.01,Wunderground v.1.15,2013-08-24 00:35:00,
2013-08-23 19:40:00,77.9,72.0,30.04,ESE,114,0.0,0.0,82,0.00,,,0.01,Wunderground v.1.15,2013-08-24 00:40:00,
2013-08-23 19:45:00,77.1,71.5,30.04,ESE,115,0.0,0.0,83,0.00,,,0.01,Wunderground v.1.15,2013-08-24 00:45:00,
2013-08-23 19:51:00,76.3,71.1,30.04,ESE,114,0.0,0.0,84,0.00,,,0.01,Wunderground v.1.15,2013-08-24 00:51:00,
2013-08-23 19:56:00,75.7,70.9,30.05,ESE,115,0.0,0.0,85,0.00,,,0.01,Wunderground v.1.15,2013-08-24 00:56:00,
2013-08-23 20:02:00,75.1,71.0,30.05,ESE,114,0.0,0.0,87,0.00,,,0.01,Wunderground v.1.15,2013-08-24 01:02:00,
2013-08-23 20:07:00,74.7,70.6,30.05,ESE,114,0.0,0.0,87,0.00,,,0.01,Wunderground v.1.15,2013-08-24 01:07:00,
2013-08-23 20:12:00,74.2,70.4,30.05,ESE,115,0.0,0.0,88,0.00,,,0.01,Wunderground v.1.15,2013-08-24 01:12:00,
2013-08-23 20:18:00,73.8,70.0,30.05,ESE,114,0.0,0.0,88,0.00,,,0.01,Wunderground v.1.15,2013-08-24 01:18:00,
2013-08-23 20:23:00,73.6,70.5,30.05,ESE,114,0.0,0.0,90,0.00,,,0.01,Wunderground v.1.15,2013-08-24 01:23:00,
2013-08-23 20:29:00,73.5,70.4,30.05,ESE,114,0.0,0.0,90,0.00,,,0.01,Wunderground v.1.15,2013-08-24 01:29:00,
2013-08-23 20:34:00,73.1,70.0,30.05,ESE,114,0.0,0.0,90,0.00,,,0.01,Wunderground v.1.15,2013-08-24 01:34:00,
2013-08-23 20:39:00,72.6,69.5,30.06,ESE,115,0.0,0.0,90,0.00,,,0.01,Wunderground v.1.15,2013-08-24 01:39:00,
2013-08-23 20:45:00,72.3,69.5,30.06,ESE,114,0.0,0.0,91,0.00,,,0.01,Wunderground v.1.15,2013-08-24 01:45:00,
2013-08-23 20:50:00,72.0,69.5,30.06,ESE,115,0.0,0.0,92,0.00,,,0.01,Wunderground v.1.15,2013-08-24 01:50:00,
2013-08-23 20:55:00,71.6,68.8,30.06,ESE,114,0.0,0.0,91,0.00,,,0.01,Wunderground v.1.15,2013-08-24 01:55:00,
2013-08-23 21:00:00,71.2,68.8,30.06,ESE,114,0.0,0.0,92,0.00,,,0.01,Wunderground v.1.15,2013-08-24 02:00:00,
2013-08-23 21:06:00,71.1,69.0,30.07,ESE,114,0.0,0.0,93,0.00,,,0.01,Wunderground v.1.15,2013-08-24 02:06:00,
2013-08-23 21:11:00,70.9,68.8,30.07,ESE,115,0.0,0.0,93,0.00,,,0.01,Wunderground v.1.15,2013-08-24 02:11:00,
2013-08-23 21:16:00,70.7,68.6,30.07,ESE,114,0.0,0.0,93,0.00,,,0.01,Wunderground v.1.15,2013-08-24 02:16:00,
2013-08-23 21:21:00,70.7,68.9,30.07,ESE,114,0.0,0.0,94,0.00,,,0.01,Wunderground v.1.15,2013-08-24 02:21:00,
2013-08-23 21:26:00,70.6,68.8,30.07,ESE,114,0.0,0.0,94,0.00,,,0.01,Wunderground v.1.15,2013-08-24 02:26:00,
2013-08-23 21:32:00,70.5,68.7,30.07,ESE,114,0.0,0.0,94,0.00,,,0.01,Wunderground v.1.15,2013-08-24 02:32:00,
2013-08-23 21:37:00,70.5,68.7,30.07,ESE,113,0.0,0.0,94,0.00,,,0.01,Wunderground v.1.15,2013-08-24 02:37:00,
2013-08-23 21:42:00,70.3,68.5,30.07,ESE,113,0.0,0.0,94,0.00,,,0.01,Wunderground v.1.15,2013-08-24 02:42:00,
2013-08-23 21:47:00,70.1,68.3,30.07,ESE,105,0.0,0.0,94,0.00,,,0.01,Wunderground v.1.15,2013-08-24 02:47:00,
2013-08-23 21:52:00,70.1,68.3,30.07,ESE,104,0.0,0.0,94,0.00,,,0.01,Wunderground v.1.15,2013-08-24 02:52:00,
2013-08-23 21:57:00,69.9,68.1,30.07,ESE,105,0.0,0.0,94,0.00,,,0.01,Wunderground v.1.15,2013-08-24 02:57:00,
2013-08-23 22:03:00,69.7,67.9,30.07,ESE,104,0.0,0.0,94,0.00,,,0.01,Wunderground v.1.15,2013-08-24 03:03:00,
2013-08-23 22:09:00,69.6,68.1,30.07,ESE,104,0.0,0.0,95,0.00,,,0.01,Wunderground v.1.15,2013-08-24 03:09:00,
2013-08-23 22:14:00,69.6,68.1,30.07,ESE,104,0.0,0.0,95,0.00,,,0.01,Wunderground v.1.15,2013-08-24 03:14:00,
2013-08-23 22:19:00,69.4,67.9,30.07,ESE,104,0.0,0.0,95,0.00,,,0.01,Wunderground v.1.15,2013-08-24 03:19:00,
2013-08-23 22:24:00,69.5,68.0,30.07,ESE,105,0.0,0.0,95,0.00,,,0.01,Wunderground v.1.15,2013-08-24 03:24:00,
2013-08-23 22:29:00,69.5,68.0,30.07,ESE,104,0.0,0.0,95,0.00,,,0.01,Wunderground v.1.15,2013-08-24 03:29:00,
2013-08-23 22:34:00,69.6,68.1,30.07,ESE,102,0.0,0.0,95,0.00,,,0.01,Wunderground v.1.15,2013-08-24 03:34:00,
2013-08-23 22:40:00,69.6,68.1,30.07,ESE,102,0.0,0.0,95,0.00,,,0.01,Wunderground v.1.15,2013-08-24 03:40:00,
2013-08-23 22:45:00,69.5,68.0,30.08,East,80,0.0,0.0,95,0.00,,,0.01,Wunderground v.1.15,2013-08-24 03:45:00,
2013-08-23 22:50:00,69.4,67.9,30.08,East,80,0.0,0.0,95,0.00,,,0.01,Wunderground v.1.15,2013-08-24 03:50:00,
2013-08-23 22:55:00,69.2,67.7,30.08,East,80,0.0,0.0,95,0.00,,,0.01,Wunderground v.1.15,2013-08-24 03:55:00,
2013-08-23 23:00:00,69.0,67.5,30.08,East,80,0.0,0.0,95,0.00,,,0.01,Wunderground v.1.15,2013-08-24 04:00:00,
2013-08-23 23:01:00,69.0,67.5,30.08,East,80,0.0,0.0,95,0.00,,,0.01,Wunderground v.1.15,2013-08-24 04:01:00,
2013-08-23 23:02:00,69.0,67.5,30.08,East,80,0.0,0.0,95,0.00,,,0.01,Wunderground v.1.15,2013-08-24 04:02:00,
2013-08-23 23:03:00,69.0,67.5,30.08,East,81,0.0,0.0,95,0.00,,,0.01,Wunderground v.1.15,2013-08-24 04:03:00,
2013-08-23 23:08:00,68.8,67.3,30.08,East,80,0.0,0.0,95,0.00,,,0.01,Wunderground v.1.15,2013-08-24 04:08:00,
2013-08-23 23:13:00,68.9,67.4,30.08,East,80,0.0,0.0,95,0.00,,,0.01,Wunderground v.1.15,2013-08-24 04:13:00,
2013-08-23 23:18:00,68.9,67.4,30.08,East,80,0.0,0.0,95,0.00,,,0.01,Wunderground v.1.15,2013-08-24 04:18:00,
2013-08-23 23:23:00,69.0,67.5,30.08,East,87,0.0,0.0,95,0.00,,,0.01,Wunderground v.1.15,2013-08-24 04:23:00,
2013-08-23 23:28:00,68.9,67.4,30.08,East,87,0.0,0.0,95,0.00,,,0.01,Wunderground v.1.15,2013-08-24 04:28:00,
2013-08-23 23:33:00,68.8,67.3,30.08,East,87,0.0,0.0,95,0.00,,,0.01,Wunderground v.1.15,2013-08-24 04:33:00,
2013-08-23 23:38:00,68.5,67.0,30.09,East,87,0.0,0.0,95,0.00,,,0.01,Wunderground v.1.15,2013-08-24 04:38:00,
2013-08-23 23:43:00,68.2,66.7,30.09,East,88,0.0,0.0,95,0.00,,,0.01,Wunderground v.1.15,2013-08-24 04:43:00,
2013-08-23 23:48:00,67.9,66.4,30.09,East,88,0.0,0.0,95,0.00,,,0.01,Wunderground v.1.15,2013-08-24 04:48:00,
2013-08-23 23:53:00,67.9,66.4,30.09,East,87,0.0,0.0,95,0.00,,,0.01,Wunderground v.1.15,2013-08-24 04:53:00,
2013-08-23 23:58:00,67.9,66.4,30.09,East,87,0.0,0.0,95,0.00,,,0.01,Wunderground v.1.15,2013-08-24 04:58:00,